{"data":{"norad_id":59923,"intl_designator":"2024-106B","name":"STARLINK-31972","alt_names":[],"object_type":"PAYLOAD","status":"ACTIVE","operator":null,"country":"US","launch_date":"2024-06-01","launch_site_code":"AFETR","launch_vehicle":null,"mission":null,"orbit_class":"UNKNOWN","rcs_meters":null,"size_class":null,"mass_kg":null,"dimensions":null,"purposes":["comms"],"wikipedia_slug":null,"has_3d_model":false,"image_url":null,"decayed_at":null,"tle_current":{"epoch":"2026-05-25T00:12:36.407808Z","epoch_age_seconds":70983,"freshness":"FRESH","line1":"1 59923U 24106B   26145.00875472  .00000088  00000+0  12713-4 0  9995","line2":"2 59923  42.9988 261.6160 0001014 274.2758  85.7978 15.27572656112243","mean_motion":15.27572656,"eccentricity":0.0001014,"inclination_deg":42.9988,"raan_deg":261.616,"arg_perigee_deg":274.2758,"mean_anomaly_deg":85.7978,"bstar":1.2713e-5,"rev_number":11224,"period_min":94.267201913046,"perigee_km":482.37536020575,"apogee_km":483.76681320574,"semimajor_km":6861.2080867057,"source":"CELESTRAK","updated_at":"2026-05-25T13:38:19.121497Z"}}}